Regional Weather Roundup
Issued by NWS

Home | Current Version | Previous Version | Text Only | Print | Product List | Glossary Off
Versions: 1 2 3 4 5 6 7 8 9 10 11 12 13 14 15 16 17 18 19 20 21 22 23 24 25 26 27 28 29 30 31 32 33 34 35 36 37 38 39 40 41 42 43 44 45 46 47 48 49 50

000
ASUS43 KLSX 242357
RWRMO

WEATHER SUMMARY FOR MISSOURI
NATIONAL WEATHER SERVICE SPRINGFIELD MO
700 PM CDT SAT JUN 24 2017

NOTE: "FAIR" INDICATES FEW OR NO CLOUDS BELOW 12,000 FEET WITH NO
       SIGNIFICANT WEATHER AND/OR OBSTRUCTIONS TO VISIBILITY.
       CURRENT SKY AND/OR WEATHER CONDITIONS ARE NOT AVAILABLE FOR
       CHILLICOTHE AND FARMINGTON.

MOZ001>031-035>038-043-044-053-054-250100-
...NORTHERN AND WESTERN MISSOURI...

CITY           SKY/WX    TMP DP  RH WIND       PRES   REMARKS
KANSAS CTY INT MOSUNNY   75  46  35 W6        30.16F
6HR MIN TEMP:  74; 6HR MAX TEMP:  79;

LEE`S SUMMIT   MOSUNNY   77  45  32 NW7       30.17F
6HR MIN TEMP:  74; 6HR MAX TEMP:  79;

ST JOSEPH      SUNNY     78  46  32 W8        30.14F
6HR MIN TEMP:  75; 6HR MAX TEMP:  81;

CHILLICOTHE      N/A     77  42  28 VRB5      30.15F
6HR MIN TEMP:  74; 6HR MAX TEMP:  79;


$$
MOZ066>068-077>081-088>096-101>105-250100-
...SOUTHWEST MISSOURI...

CITY           SKY/WX    TMP DP  RH WIND       PRES   REMARKS
SPRINGFIELD    SUNNY     76  48  37 N9        30.17R
6HR MIN TEMP:  76; 6HR MAX TEMP:  78;

JOPLIN         SUNNY     79  53  40 N9        30.17S
6HR MIN TEMP:  79; 6HR MAX TEMP:  82;

BRANSON        MOSUNNY   77  50  38 NW7       30.17S

$$
MOZ032>034-039>042-045>050-055>058-069>072-250100-
...CENTRAL MISSOURI...

CITY           SKY/WX    TMP DP  RH WIND       PRES   REMARKS
COLUMBIA       NOT AVBL
JEFFERSON CITY SUNNY     77  43  29 NW9       30.14S
6HR MIN TEMP:  76; 6HR MAX TEMP:  79;

ROLLA          SUNNY     74  46  36 NW9       30.15R
6HR MIN TEMP:  74; 6HR MAX TEMP:  77;

SEDALIA        PTSUNNY   75  49  39 NW7       30.18R
6HR MIN TEMP:  75; 6HR MAX TEMP:  79;

WARRENSBURG    CLOUDY    73  46  38 NW5       30.16S

$$
MOZ051-052-059>065-250100-
...EAST CENTRAL MISSOURI...

CITY           SKY/WX    TMP DP  RH WIND       PRES   REMARKS
ST LOUIS INTL  MOSUNNY   77  44  30 N12       30.12R
6HR MIN TEMP:  77; 6HR MAX TEMP:  81;


$$
MOZ072>076-082>087-097>100-106>115-250100-
...SOUTH CENTRAL AND SOUTHEAST MISSOURI...

CITY           SKY/WX    TMP DP  RH WIND       PRES   REMARKS
CAPE GIRARDEAU MOSUNNY   76  52  43 CALM      30.10R
6HR MIN TEMP:  76; 6HR MAX TEMP:  80;

POPLAR BLUFF   MOSUNNY   75  59  57 W3        30.11R
6HR MIN TEMP:  75; 6HR MAX TEMP:  81;

WEST PLAINS    CLOUDY    77  48  35 N7        30.16R
6HR MIN TEMP:  76; 6HR MAX TEMP:  80;


$$



USA.gov is the U.S. government's official web portal to all federal, state and local government web resources and services.